Flag for U.S.A. Weather past 2 weeks in Cumberland, Maryland, U.S.A.

Now
35 °F

Overcast.


Feels Like: 28 °F
Forecast: 20 / 43 °F
Wind: 9 mph from South

Location: Eastern West Virginia Regional Airport

Current Time: Mar 3, 2015 at 6:16:20 PM

Latest Report: Mar 3, 2015 at 5:53 PM


Visibility: 10 mi

Pressure: 29.98 "Hg

Humidity: 54%

Dew point: 20 °F

Location of CumberlandLocation

Historic Weather in Cumberland — Graph

°F

Cumberland temperature yesterday

Maximum temperature yesterday: 42 °F (at 5:53 AM)
Minimum temperature yesterday: 26 °F (at 10:53 PM)
Average temperature yesterday: 36 °F

Past Weeks' High & Low Weather Summary

 TemperatureHumidityPressure
High49 °F (Feb 22, 3:53 PM)89% (Mar 2, 4:53 AM)30.86 "Hg (Mar 2, 4:53 AM)
Low1 °F (Feb 24, 6:53 AM)26% (Feb 28, 4:53 PM)29.69 "Hg (Feb 18, 2:53 PM)
Average24 °F56%30.21 "Hg
* Reported Feb 16 4:01 PM — Mar 3 4:53 PM, Cumberland, Weather by CustomWeather, © 2015

Note: Actual official high and low records may vary slightly from our data, if they occured in-between our weather recording intervals... More about our weather records

Advertising

Cumberland weather history for previous 24 hours

 ConditionsComfort  
Time TempWeatherWind HumidityBarometerVisibility
4:53 PM
Tue, Mar 3
35 °FLight rain. Overcast.13 mph54%30.02 "Hg8 mi
3:53 PM34 °FOvercast.14 mph52%30.06 "Hg10 mi
2:53 PM34 °FOvercast.10 mph48%30.11 "Hg10 mi
1:53 PM33 °FOvercast.13 mph49%30.17 "Hg10 mi
12:53 PM33 °FOvercast.12 mph49%30.24 "Hg10 mi
11:53 AM33 °FLight rain. Broken clouds.10 mph48%30.27 "Hg10 mi
10:53 AM32 °FMostly cloudy.10 mph50%30.34 "Hg10 mi
9:53 AM31 °FPartly sunny.9 mph47%30.36 "Hg10 mi
8:53 AM30 °FPassing clouds.6 mph51%30.40 "Hg10 mi
7:53 AM28 °FPartly sunny.No wind61%30.42 "Hg9 mi
6:53 AM27 °FPassing clouds.No wind63%30.40 "Hg10 mi
5:53 AM27 °FOvercast.No wind66%30.40 "Hg10 mi
4:53 AM26 °FPassing clouds.No wind69%30.40 "Hg10 mi
3:53 AM26 °FClear.5 mph63%30.38 "Hg10 mi
2:53 AM24 °FClear.5 mph68%30.41 "Hg10 mi
1:53 AM24 °FClear.No wind68%30.42 "Hg10 mi
12:53 AM24 °FClear.3 mph65%30.42 "Hg10 mi
11:53 PM
Mon, Mar 2
27 °FClear.6 mph58%30.42 "Hg10 mi
10:53 PM26 °FClear.No wind60%30.44 "Hg10 mi
9:53 PM29 °FClear.6 mph54%30.43 "Hg10 mi
8:53 PM32 °FClear.3 mph45%30.42 "Hg10 mi
7:53 PM33 °FClear.10 mph45%30.41 "Hg10 mi
6:53 PM34 °FClear.7 mph44%30.38 "Hg10 mi
Weather by CustomWeather, © 2015

See weather overviewHow to use our weather pages